Content
SEND FEEDBACK

Daily
Averages
Monthly
Summary
United States of America

RIMROCK, ARIZONA


Home > North America > United States > Arizona
Elevation: 1167 meters     Latitude: 34 40N     Longitude: 111 43W

WEATHER
 
SELECT A DAY
Number of Records: 130,443;   Date Range: 1/4/95 - 8/12/14
 
SHARE

PRINT THIS DATA

[ ← Previous Day ]
WEATHER ALMANAC - 6 MARCH, 2014
[ Next Day → ]
[ °F ]   °C
Weather ElementAverageHighLow
Temperature12.9 °C20 °C (3:55 pm)9 °C (3:15 am)
Dewpoint-2.4 °C0 °C (9:50 am)-5 °C (4:15 am)
Humidity35 %44 % (9:50 am)24 % (3:55 pm)
Barometer1019 hPa1021.7 hPa (12:35 am)1015.6 hPa (5:55 pm)
Wind Speed11.6 km/h24.1 km/h (1:15 am)
Wind Gust29.6 km/h (4:15 am)
Weather ElementAverage
Visibility16.1 km
Wind DirectionESE (97.3 °)

Weather ElementTotal
Precipitation---
Heating Degree Days3.8 (Base 18.3)
Growing Degree Days4.5 (Base 10)
Averaged from 71 records on 6 March, 2014
WEATHER CONDITIONS BREAKOUT
WIND DIRECTION BREAKOUT
WEATHER BY HOUR - 6 MARCH, 2014
[ °F ]   °C
Local TimeTemperatureDewpointHumidityBarometerVisibilityWind DirectionWind SpeedGust SpeedPrecipitationEventsConditions
12:35 AM11 °C-3 °C38 %1021.7 hPa16.1 kmNE (40°)22.2 km/hClear
12:55 AM11 °C-3 °C38 %1021.7 hPa16.1 kmNE (40°)22.2 km/hClear
1:15 AM10 °C-3 °C40 %1021.3 hPa16.1 kmNE (40°)24.1 km/hClear
1:35 AM10 °C-3 °C40 %1021.3 hPa16.1 kmNE (50°)24.1 km/hClear
1:55 AM10 °C-3 °C40 %1021 hPa16.1 kmNE (40°)22.2 km/hClear
2:15 AM10 °C-3 °C40 %1021 hPa16.1 kmNE (40°)20.4 km/hClear
2:35 AM10 °C-3 °C40 %1020.7 hPa16.1 kmNE (50°)18.5 km/hClear
2:55 AM10 °C-3 °C40 %1020.7 hPa16.1 kmNE (50°)14.8 km/hClear
3:15 AM9 °C-3 °C43 %1020.3 hPa16.1 kmNE (40°)16.7 km/hClear
3:35 AM9 °C-3 °C43 %1020.3 hPa16.1 kmNE (40°)18.5 km/hClear
3:55 AM9 °C-4 °C40 %1020.3 hPa16.1 kmNE (50°)22.2 km/hClear
4:15 AM9 °C-5 °C37 %1020.3 hPa16.1 kmNE (50°)20.4 km/h29.6 km/hClear
4:35 AM9 °C-5 °C37 %1020.7 hPa16.1 kmNE (50°)20.4 km/hClear
4:55 AM10 °C-5 °C35 %1021 hPa16.1 kmNE (40°)16.7 km/hClear
5:10 AM10 °C-5 °C35 %1021 hPa16.1 kmNE (40°)20.4 km/hClear
5:35 AM10 °C-5 °C35 %1021 hPa16.1 kmNE (50°)20.4 km/hClear
5:55 AM10 °C-5 °C35 %1021 hPa16.1 kmNE (40°)24.1 km/hClear
6:15 AM10 °C-5 °C35 %1021 hPa16.1 kmNE (50°)20.4 km/hClear
6:35 AM10 °C-5 °C35 %1021 hPa16.1 kmNE (50°)18.5 km/hClear
6:55 AM9 °C-5 °C37 %1021 hPa16.1 kmNE (50°)16.7 km/hClear
7:15 AM10 °C-5 °C35 %1021 hPa16.1 kmENE (60°)16.7 km/hClear
7:35 AM10 °C-5 °C35 %1021 hPa16.1 kmENE (60°)9.3 km/hClear
7:55 AM10 °C-4 °C37 %1021 hPa16.1 kmNNE (30°)7.4 km/hClear
8:15 AM10 °C-4 °C37 %1021 hPa16.1 kmNE (40°)11.1 km/hClear
8:35 AM11 °C-4 °C35 %1021 hPa16.1 kmENE (60°)16.7 km/hClear
8:55 AM12 °C-3 °C35 %1021 hPa16.1 kmENE (70°)11.1 km/hClear
9:15 AM12 °C-2 °C38 %1020.7 hPa16.1 kmEast (90°)9.3 km/hClear
9:35 AM12 °C-2 °C38 %1021 hPa16.1 kmNNE (30°)7.4 km/hClear
9:50 AM12 °C0 °C44 %1021 hPa16.1 kmESE (120°)5.6 km/hClear
10:15 AM12 °C0 °C44 %1021.3 hPa16.1 kmCalmClear
10:35 AM12 °C0 °C44 %1021 hPa16.1 kmSE (140°)5.6 km/hClear
10:55 AM12 °C-1 °C41 %1021 hPa16.1 kmCalmClear
11:15 AM13 °C-1 °C38 %1021 hPa16.1 kmCalmClear
11:35 AM13 °C0 °C41 %1021 hPa16.1 kmCalmClear
11:55 AM15 °C-1 °C34 %1021 hPa16.1 kmCalmClear
12:15 PM16 °C-2 °C29 %1020.7 hPa16.1 kmCalmClear
12:35 PM17 °C-2 °C27 %1020 hPa16.1 kmSE (140°)7.4 km/hClear
12:55 PM18 °C-2 °C26 %1019.6 hPa16.1 kmSSE (160°)9.3 km/hClear
1:15 PM18 °C-2 °C26 %1019 hPa16.1 kmSSE (160°)9.3 km/hClear
1:35 PM17 °C-2 °C27 %1019 hPa16.1 kmSouth (170°)5.6 km/hScattered Clouds
1:55 PM17 °C-2 °C27 %1018.6 hPa16.1 kmSW (230°)11.1 km/hClear
2:15 PM18 °C-1 °C28 %1018.3 hPa16.1 kmSouth (190°)11.1 km/hClear
2:35 PM17 °C-1 °C30 %1018.3 hPa16.1 kmSouth (190°)9.3 km/hClear
2:55 PM17 °C-1 °C30 %1017.9 hPa16.1 kmCalmClear
3:15 PM18 °C-1 °C28 %1017.6 hPa16.1 kmSouth (190°)5.6 km/hClear
3:35 PM18 °C-1 °C28 %1017.3 hPa16.1 kmSouth (170°)9.3 km/hClear
3:55 PM20 °C-1 °C24 %1017.3 hPa16.1 kmSSW (200°)11.1 km/hClear
4:15 PM18 °C-1 °C28 %1016.6 hPa16.1 kmSSE (160°)11.1 km/hClear
4:35 PM19 °C-2 °C24 %1016.9 hPa16.1 kmSSW (210°)14.8 km/hClear
4:55 PM18 °C-2 °C26 %1016.6 hPa16.1 kmSSW (210°)14.8 km/hClear
5:15 PM17 °C-1 °C30 %1016.6 hPa16.1 kmSouth (170°)11.1 km/hClear
5:35 PM17 °C-2 °C27 %1015.9 hPa16.1 kmSW (220°)9.3 km/hClear
5:55 PM16 °C-2 °C29 %1015.6 hPa16.1 kmSouth (170°)13 km/hClear
6:15 PM16 °C-2 °C29 %1015.9 hPa16.1 kmSouth (190°)9.3 km/hClear
6:35 PM15 °C-2 °C31 %1015.9 hPa16.1 kmSSW (200°)11.1 km/hClear
6:55 PM15 °C-3 °C29 %1015.6 hPa16.1 kmSouth (190°)11.1 km/hClear
7:15 PM15 °C-3 °C29 %1015.9 hPa16.1 kmSSW (200°)13 km/hClear
7:35 PM15 °C-3 °C29 %1015.6 hPa16.1 kmSouth (190°)14.8 km/hClear
7:55 PM15 °C-2 °C31 %1015.9 hPa16.1 kmSouth (190°)11.1 km/hClear
8:15 PM13 °C-2 °C36 %1016.3 hPa16.1 kmSSW (200°)9.3 km/hClear
8:35 PM13 °C-2 °C36 %1016.6 hPa16.1 kmSouth (180°)7.4 km/hClear
8:55 PM12 °C-2 °C38 %1015.9 hPa16.1 kmSSE (160°)11.1 km/hClear
9:15 PM12 °C-1 °C41 %1015.9 hPa16.1 kmSE (140°)11.1 km/hClear
9:35 PM12 °C-2 °C38 %1015.9 hPa16.1 kmSSE (160°)13 km/hClear
9:55 PM12 °C-1 °C41 %1015.9 hPa16.1 kmSSE (160°)7.4 km/hClear
10:15 PM11 °C-2 °C41 %1015.9 hPa16.1 kmSSE (150°)5.6 km/hClear
10:35 PM11 °C-1 °C44 %1015.9 hPa16.1 kmCalmClear
10:55 PM12 °C-2 °C38 %1016.3 hPa16.1 kmCalmClear
11:15 PM12 °C-2 °C38 %1016.3 hPa16.1 kmCalmClear
11:35 PM11 °C-2 °C41 %1016.3 hPa16.1 kmNNE (30°)5.6 km/hClear
11:55 PM10 °C-2 °C43 %1015.9 hPa16.1 kmNNE (30°)9.3 km/hClear
Hourly data recorded from KSEZ, located 0 kilometers away from Rimrock, Arizona







STORIES FROM OUR PARTNERS